QPF
0.00 0.00 0.00 0.00 0.00 0.00 0.00 0.00 0.00 0.00 0.00 0.00 0.00 0.01 0.00 0.00 0.00 0.00 0.00 0.00 0.00 0.00 0.00 0.01 0.01 0.01 0.01 0.02 0.02 0.04 0.05 0.02 0.02 0.03 0.05 0.07 0.07 0.07 0.09 0.10 0.07 0.08 0.08 0.05 0.03 0.04 0.06 0.06 0.08
0.00 0.00 0.00 0.00 0.00 0.00 0.00 0.00 0.00 0.00 0.00 0.00 0.00 0.00 0.00 0.00 0.00 0.00 0.00 0.00 0.00 0.00 0.00 0.00 0.01 0.01 0.01 0.02 0.02 0.03 0.05 0.02 0.02 0.02 0.03 0.05 0.06 0.06 0.07 0.11 0.09 0.08 0.08 0.06 0.05 0.06 0.08 0.07 0.08
0.00 0.00 0.00 0.00 0.00 0.00 0.00 0.00 0.00 0.00 0.00 0.00 0.00 0.00 0.00 0.00 0.00 0.00 0.00 0.00 0.00 0.00 0.00 0.00 0.01 0.01 0.01 0.02 0.03 0.04 0.05 0.03 0.03 0.03 0.03 0.04 0.06 0.06 0.10 0.14 0.10 0.08 0.07 0.09 0.11 0.11 0.10 0.09 0.08
0.00 0.00 0.00 0.00 0.00 0.00 0.00 0.00 0.00 0.00 0.00 0.00 0.00 0.00 0.00 0.00 0.00 0.00 0.00 0.00 0.00 0.00 0.00 0.01 0.02 0.01 0.01 0.03 0.04 0.06 0.07 0.05 0.04 0.06 0.05 0.05 0.05 0.06 0.10 0.14 0.09 0.07 0.06 0.07 0.10 0.12 0.11 0.09 0.07
0.00 0.00 0.00 0.00 0.00 0.00 0.00 0.00 0.00 0.00 0.00 0.00 0.00 0.00 0.00 0.00 0.00 0.00 0.00 0.00 0.00 0.00 0.00 0.01 0.02 0.02 0.03 0.04 0.06 0.09 0.10 0.08 0.07 0.09 0.07 0.05 0.05 0.06 0.07 0.07 0.07 0.06 0.06 0.07 0.08 0.09 0.12 0.11 0.09
0.00 0.00 0.00 0.00 0.00 0.00 0.00 0.00 0.00 0.00 0.00 0.00 0.00 0.00 0.00 0.00 0.00 0.00 0.01 0.01 0.01 0.01 0.01 0.02 0.03 0.03 0.04 0.05 0.07 0.08 0.08 0.08 0.07 0.08 0.07 0.05 0.04 0.05 0.06 0.07 0.08 0.08 0.07 0.07 0.07 0.06 0.07 0.13 0.12
0.00 0.00 0.00 0.00 0.00 0.00 0.00 0.00 0.00 0.00 0.00 0.00 0.00 0.00 0.00 0.00 0.00 0.01 0.01 0.01 0.01 0.02 0.03 0.06 0.06 0.04 0.03 0.04 0.05 0.06 0.07 0.07 0.06 0.06 0.07 0.07 0.06 0.06 0.07 0.07 0.08 0.08 0.07 0.05 0.04 0.04 0.05 0.13 0.14
0.00 0.00 0.00 0.00 0.00 0.00 0.00 0.00 0.00 0.00 0.00 0.00 0.00 0.00 0.00 0.00 0.00 0.01 0.01 0.01 0.02 0.03 0.06 0.08 0.05 0.03 0.02 0.03 0.04 0.06 0.05 0.05 0.06 0.07 0.08 0.11 0.12 0.09 0.06 0.05 0.06 0.07 0.07 0.08 0.06 0.06 0.07 0.14 0.16
0.00 0.00 0.00 0.00 0.00 0.00 0.00 0.00 0.00 0.00 0.00 0.00 0.00 0.00 0.00 0.00 0.00 0.01 0.01 0.01 0.01 0.01 0.02 0.03 0.02 0.03 0.03 0.02 0.03 0.05 0.06 0.05 0.06 0.08 0.08 0.08 0.14 0.14 0.09 0.06 0.06 0.08 0.10 0.12 0.10 0.08 0.08 0.14 0.16
0.00 0.00 0.00 0.00 0.00 0.00 0.00 0.00 0.00 0.00 0.00 0.00 0.00 0.00 0.00 0.00 0.00 0.01 0.01 0.00 0.00 0.01 0.01 0.01 0.03 0.04 0.03 0.02 0.03 0.05 0.05 0.04 0.04 0.05 0.06 0.06 0.10 0.15 0.15 0.12 0.11 0.11 0.12 0.12 0.11 0.10 0.09 0.12 0.14
0.00 0.00 0.00 0.00 0.00 0.00 0.00 0.00 0.00 0.00 0.00 0.00 0.00 0.00 0.00 0.01 0.01 0.01 0.01 0.00 0.01 0.01 0.01 0.01 0.03 0.03 0.03 0.03 0.02 0.04 0.04 0.05 0.04 0.05 0.06 0.06 0.07 0.08 0.13 0.16 0.15 0.12 0.11 0.11 0.10 0.10 0.09 0.10 0.12
0.00 0.00 0.00 0.00 0.00 0.00 0.00 0.00 0.00 0.00 0.00 0.00 0.00 0.01 0.01 0.02 0.03 0.03 0.02 0.01 0.01 0.01 0.01 0.01 0.01 0.01 0.02 0.03 0.02 0.02 0.04 0.04 0.03 0.04 0.06 0.06 0.05 0.05 0.05 0.08 0.12 0.13 0.11 0.10 0.09 0.08 0.07 0.09 0.12
0.00 0.00 0.00 0.01 0.00 0.00 0.00 0.00 0.00 0.00 0.00 0.00 0.01 0.01 0.02 0.03 0.02 0.03 0.03 0.03 0.02 0.02 0.01 0.01 0.01 0.01 0.01 0.02 0.02 0.01 0.03 0.05 0.04 0.04 0.04 0.05 0.05 0.05 0.05 0.05 0.06 0.09 0.11 0.11 0.08 0.08 0.08 0.07 0.09
0.00 0.00 0.00 0.01 0.01 0.00 0.00 0.00 0.00 0.00 0.00 0.00 0.01 0.01 0.01 0.01 0.02 0.07 0.06 0.03 0.02 0.02 0.02 0.02 0.02 0.01 0.01 0.01 0.02 0.02 0.02 0.03 0.03 0.02 0.03 0.03 0.05 0.05 0.06 0.05 0.05 0.06 0.08 0.09 0.09 0.08 0.08 0.07 0.07
0.00 0.00 0.01 0.01 0.01 0.01 0.01 0.01 0.00 0.00 0.00 0.00 0.00 0.01 0.00 0.00 0.02 0.06 0.06 0.02 0.01 0.01 0.02 0.02 0.02 0.01 0.01 0.02 0.01 0.01 0.02 0.03 0.03 0.03 0.03 0.03 0.03 0.04 0.04 0.04 0.04 0.07 0.08 0.08 0.09 0.09 0.09 0.07 0.06
0.00 0.00 0.01 0.01 0.00 0.00 0.01 0.01 0.00 0.00 0.00 0.00 0.00 0.00 0.00 0.00 0.01 0.01 0.02 0.01 0.01 0.01 0.02 0.02 0.02 0.01 0.01 0.02 0.02 0.01 0.02 0.03 0.03 0.03 0.03 0.02 0.02 0.02 0.03 0.03 0.03 0.06 0.07 0.08 0.08 0.08 0.07 0.07 0.07
0.01 0.00 0.00 0.00 0.00 0.00 0.01 0.01 0.00 0.00 0.00 0.00 0.00 0.00 0.00 0.00 0.00 0.01 0.01 0.01 0.01 0.01 0.02 0.02 0.02 0.02 0.02 0.02 0.04 0.03 0.03 0.03 0.03 0.02 0.02 0.01 0.01 0.01 0.02 0.03 0.03 0.03 0.04 0.05 0.06 0.06 0.06 0.05 0.06
0.00 0.00 0.00 0.00 0.00 0.00 0.01 0.01 0.00 0.00 0.00 0.00 0.00 0.00 0.00 0.00 0.00 0.01 0.01 0.02 0.01 0.01 0.02 0.02 0.02 0.02 0.03 0.04 0.05 0.06 0.06 0.06 0.05 0.04 0.02 0.01 0.02 0.02 0.02 0.04 0.04 0.03 0.04 0.04 0.06 0.07 0.06 0.05 0.05
0.00 0.00 0.00 0.00 0.01 0.01 0.01 0.00 0.00 0.00 0.00 0.00 0.00 0.01 0.01 0.00 0.01 0.01 0.02 0.02 0.02 0.02 0.02 0.03 0.02 0.02 0.03 0.05 0.07 0.09 0.07 0.05 0.05 0.04 0.03 0.02 0.03 0.04 0.04 0.04 0.06 0.05 0.05 0.04 0.05 0.08 0.08 0.07 0.06
0.00 0.00 0.00 0.00 0.01 0.01 0.01 0.01 0.01 0.00 0.00 0.00 0.00 0.01 0.01 0.01 0.01 0.02 0.03 0.03 0.03 0.02 0.02 0.02 0.02 0.02 0.03 0.05 0.09 0.08 0.04 0.02 0.03 0.05 0.05 0.05 0.05 0.07 0.07 0.06 0.06 0.06 0.06 0.07 0.06 0.07 0.07 0.06 0.05
0.00 0.00 0.01 0.00 0.01 0.01 0.01 0.00 0.01 0.00 0.00 0.00 0.00 0.00 0.01 0.01 0.01 0.01 0.02 0.02 0.03 0.03 0.03 0.03 0.02 0.03 0.05 0.07 0.07 0.03 0.02 0.02 0.02 0.02 0.03 0.05 0.04 0.05 0.06 0.07 0.07 0.08 0.07 0.07 0.07 0.07 0.06 0.05 0.05
0.00 0.00 0.01 0.01 0.02 0.01 0.01 0.01 0.01 0.00 0.00 0.00 0.01 0.01 0.01 0.01 0.01 0.03 0.02 0.01 0.02 0.03 0.03 0.02 0.03 0.07 0.05 0.03 0.01 0.01 0.01 0.01 0.01 0.02 0.03 0.03 0.03 0.03 0.04 0.05 0.07 0.09 0.07 0.06 0.05 0.05 0.05 0.05 0.05
0.00 0.00 0.00 0.01 0.01 0.01 0.00 0.01 0.01 0.00 0.01 0.01 0.01 0.01 0.02 0.02 0.02 0.03 0.03 0.03 0.04 0.04 0.03 0.03 0.03 0.03 0.02 0.02 0.01 0.01 0.01 0.01 0.01 0.02 0.03 0.03 0.03 0.03 0.04 0.05 0.08 0.09 0.08 0.06 0.04 0.06 0.06 0.05 0.05
0.00 0.00 0.01 0.01 0.01 0.01 0.01 0.01 0.01 0.00 0.00 0.01 0.01 0.01 0.01 0.01 0.01 0.02 0.03 0.03 0.05 0.05 0.04 0.03 0.01 0.00 0.01 0.02 0.02 0.02 0.01 0.01 0.01 0.02 0.03 0.03 0.03 0.03 0.03 0.05 0.08 0.08 0.06 0.06 0.05 0.07 0.07 0.06 0.06
0.00 0.01 0.02 0.02 0.01 0.01 0.00 0.00 0.01 0.00 0.00 0.00 0.01 0.01 0.01 0.01 0.01 0.01 0.02 0.03 0.03 0.03 0.02 0.02 0.02 0.01 0.01 0.02 0.02 0.02 0.02 0.02 0.02 0.02 0.03 0.04 0.05 0.04 0.05 0.05 0.06 0.06 0.05 0.05 0.05 0.05 0.06 0.05 0.06
0.00 0.01 0.01 0.01 0.01 0.00 0.00 0.00 0.01 0.00 0.00 0.00 0.01 0.01 0.01 0.01 0.01 0.01 0.02 0.01 0.01 0.01 0.01 0.01 0.02 0.01 0.01 0.01 0.01 0.02 0.02 0.02 0.02 0.02 0.02 0.04 0.05 0.06 0.05 0.05 0.05 0.04 0.04 0.04 0.04 0.04 0.05 0.04 0.05
0.00 0.00 0.00 0.00 0.00 0.01 0.00 0.00 0.00 0.00 0.00 0.00 0.00 0.01 0.01 0.01 0.01 0.01 0.01 0.01 0.01 0.01 0.01 0.01 0.01 0.01 0.01 0.01 0.01 0.01 0.01 0.01 0.02 0.03 0.03 0.03 0.04 0.05 0.03 0.03 0.03 0.03 0.03 0.04 0.04 0.04 0.04 0.04 0.05
0.00 0.00 0.00 0.01 0.01 0.01 0.01 0.01 0.00 0.00 0.00 0.00 0.00 0.01 0.01 0.01 0.01 0.01 0.01 0.01 0.02 0.02 0.02 0.02 0.02 0.02 0.01 0.01 0.01 0.01 0.01 0.01 0.02 0.02 0.02 0.02 0.03 0.04 0.03 0.02 0.02 0.02 0.02 0.02 0.03 0.03 0.03 0.04 0.04
0.00 0.01 0.01 0.01 0.01 0.01 0.01 0.01 0.00 0.00 0.00 0.00 0.00 0.01 0.01 0.02 0.04 0.04 0.04 0.04 0.04 0.04 0.03 0.02 0.01 0.02 0.01 0.01 0.02 0.01 0.01 0.01 0.01 0.02 0.02 0.03 0.03 0.03 0.02 0.02 0.02 0.02 0.02 0.03 0.03 0.04 0.03 0.04 0.04
0.00 0.01 0.01 0.02 0.01 0.01 0.01 0.01 0.00 0.01 0.01 0.01 0.01 0.02 0.03 0.04 0.05 0.06 0.04 0.03 0.04 0.05 0.05 0.03 0.02 0.02 0.02 0.02 0.02 0.02 0.01 0.01 0.02 0.02 0.02 0.03 0.03 0.03 0.03 0.02 0.02 0.02 0.02 0.03 0.02 0.03 0.02 0.03 0.03
MSLP
1008.42 1008.79 1009.21 1009.58 1009.80 1009.83 1009.68 1009.38 1009.01 1008.64 1008.34 1008.14 1008.02 1007.94 1007.84 1007.65 1007.37 1007.02 1006.66 1006.38 1006.27 1006.39 1006.76 1007.35 1008.06 1008.80 1009.46 1009.95 1010.25 1010.38 1010.39 1010.36 1010.35 1010.42 1010.55 1010.73 1010.91 1011.02 1011.04 1010.93 1010.73 1010.47 1010.21 1010.00 1009.85 1009.79 1009.79 1009.82 1009.87
1008.41 1008.83 1009.26 1009.60 1009.78 1009.75 1009.52 1009.13 1008.67 1008.21 1007.83 1007.54 1007.35 1007.21 1007.07 1006.89 1006.65 1006.37 1006.10 1005.94 1005.95 1006.19 1006.65 1007.31 1008.09 1008.86 1009.54 1010.06 1010.39 1010.54 1010.58 1010.57 1010.58 1010.64 1010.76 1010.91 1011.04 1011.12 1011.09 1010.96 1010.76 1010.52 1010.29 1010.12 1010.03 1010.02 1010.05 1010.12 1010.17
1008.49 1008.92 1009.33 1009.62 1009.72 1009.61 1009.30 1008.83 1008.30 1007.77 1007.32 1006.97 1006.72 1006.54 1006.38 1006.20 1005.99 1005.77 1005.59 1005.52 1005.63 1005.95 1006.50 1007.22 1008.03 1008.83 1009.54 1010.09 1010.45 1010.64 1010.72 1010.75 1010.79 1010.86 1010.98 1011.11 1011.21 1011.26 1011.22 1011.10 1010.91 1010.71 1010.54 1010.42 1010.39 1010.42 1010.49 1010.56 1010.62
1008.64 1009.06 1009.41 1009.63 1009.65 1009.46 1009.07 1008.54 1007.96 1007.40 1006.91 1006.54 1006.26 1006.06 1005.88 1005.70 1005.51 1005.33 1005.21 1005.20 1005.38 1005.76 1006.35 1007.09 1007.92 1008.73 1009.45 1010.02 1010.42 1010.66 1010.80 1010.88 1010.95 1011.06 1011.19 1011.33 1011.43 1011.48 1011.46 1011.36 1011.22 1011.08 1010.97 1010.92 1010.94 1011.00 1011.08 1011.15 1011.19
1008.85 1009.22 1009.51 1009.64 1009.57 1009.31 1008.86 1008.31 1007.71 1007.15 1006.67 1006.30 1006.03 1005.83 1005.66 1005.48 1005.30 1005.14 1005.04 1005.07 1005.26 1005.66 1006.24 1006.98 1007.79 1008.58 1009.30 1009.88 1010.30 1010.59 1010.79 1010.93 1011.06 1011.21 1011.38 1011.54 1011.68 1011.76 1011.78 1011.73 1011.66 1011.60 1011.56 1011.57 1011.62 1011.70 1011.78 1011.82 1011.83
1009.08 1009.39 1009.59 1009.64 1009.49 1009.16 1008.69 1008.13 1007.56 1007.04 1006.61 1006.28 1006.04 1005.86 1005.69 1005.53 1005.35 1005.20 1005.10 1005.12 1005.31 1005.67 1006.22 1006.90 1007.66 1008.41 1009.10 1009.67 1010.11 1010.44 1010.69 1010.90 1011.09 1011.30 1011.52 1011.73 1011.90 1012.03 1012.10 1012.13 1012.14 1012.15 1012.18 1012.25 1012.33 1012.42 1012.48 1012.49 1012.45
1009.27 1009.51 1009.63 1009.59 1009.37 1009.01 1008.53 1007.99 1007.47 1007.02 1006.65 1006.39 1006.20 1006.05 1005.92 1005.76 1005.59 1005.43 1005.32 1005.32 1005.46 1005.77 1006.25 1006.86 1007.53 1008.22 1008.86 1009.40 1009.85 1010.21 1010.50 1010.76 1011.02 1011.29 1011.55 1011.81 1012.03 1012.21 1012.34 1012.44 1012.52 1012.60 1012.70 1012.81 1012.92 1013.01 1013.06 1013.04 1012.97
1009.40 1009.56 1009.59 1009.47 1009.20 1008.81 1008.34 1007.85 1007.39 1007.01 1006.72 1006.52 1006.38 1006.27 1006.16 1006.02 1005.85 1005.68 1005.56 1005.53 1005.64 1005.89 1006.29 1006.81 1007.40 1008.01 1008.58 1009.09 1009.53 1009.90 1010.23 1010.53 1010.84 1011.15 1011.46 1011.76 1012.02 1012.24 1012.42 1012.57 1012.71 1012.85 1013.00 1013.16 1013.29 1013.39 1013.43 1013.40 1013.31
1009.43 1009.51 1009.46 1009.28 1008.97 1008.57 1008.11 1007.66 1007.26 1006.94 1006.71 1006.56 1006.46 1006.38 1006.27 1006.14 1005.98 1005.81 1005.69 1005.64 1005.71 1005.92 1006.27 1006.71 1007.23 1007.76 1008.28 1008.75 1009.16 1009.53 1009.88 1010.22 1010.56 1010.90 1011.24 1011.56 1011.85 1012.09 1012.30 1012.49 1012.67 1012.85 1013.04 1013.24 1013.41 1013.53 1013.58 1013.55 1013.47
1009.37 1009.38 1009.26 1009.03 1008.69 1008.28 1007.84 1007.42 1007.06 1006.77 1006.57 1006.44 1006.34 1006.25 1006.15 1006.01 1005.85 1005.69 1005.57 1005.54 1005.61 1005.80 1006.11 1006.52 1006.99 1007.47 1007.94 1008.37 1008.77 1009.14 1009.49 1009.84 1010.20 1010.57 1010.92 1011.26 1011.55 1011.81 1012.03 1012.23 1012.43 1012.64 1012.87 1013.09 1013.29 1013.45 1013.53 1013.54 1013.48
1009.26 1009.20 1009.04 1008.76 1008.40 1007.98 1007.55 1007.15 1006.79 1006.51 1006.30 1006.14 1006.01 1005.88 1005.74 1005.58 1005.42 1005.27 1005.17 1005.16 1005.26 1005.48 1005.80 1006.21 1006.66 1007.12 1007.57 1007.99 1008.37 1008.73 1009.09 1009.45 1009.83 1010.20 1010.56 1010.90 1011.20 1011.46 1011.69 1011.89 1012.10 1012.33 1012.57 1012.82 1013.06 1013.26 1013.39 1013.44 1013.43
1009.13 1009.03 1008.83 1008.53 1008.15 1007.73 1007.30 1006.90 1006.53 1006.21 1005.95 1005.73 1005.52 1005.32 1005.12 1004.91 1004.72 1004.58 1004.50 1004.53 1004.69 1004.96 1005.33 1005.77 1006.26 1006.74 1007.19 1007.61 1007.99 1008.36 1008.72 1009.09 1009.47 1009.85 1010.23 1010.57 1010.88 1011.15 1011.37 1011.59 1011.80 1012.03 1012.29 1012.56 1012.83 1013.07 1013.25 1013.35 1013.39
1009.05 1008.92 1008.69 1008.38 1008.00 1007.58 1007.15 1006.72 1006.32 1005.96 1005.62 1005.30 1004.99 1004.69 1004.40 1004.12 1003.88 1003.72 1003.67 1003.74 1003.95 1004.30 1004.74 1005.26 1005.80 1006.33 1006.82 1007.26 1007.66 1008.03 1008.40 1008.78 1009.16 1009.56 1009.95 1010.32 1010.65 1010.93 1011.18 1011.40 1011.62 1011.86 1012.13 1012.42 1012.71 1012.98 1013.20 1013.35 1013.43
1009.05 1008.90 1008.66 1008.34 1007.97 1007.55 1007.12 1006.68 1006.24 1005.81 1005.38 1004.96 1004.54 1004.12 1003.71 1003.34 1003.05 1002.85 1002.80 1002.90 1003.16 1003.58 1004.10 1004.70 1005.32 1005.92 1006.47 1006.95 1007.38 1007.77 1008.15 1008.53 1008.93 1009.35 1009.77 1010.17 1010.53 1010.85 1011.13 1011.38 1011.62 1011.87 1012.14 1012.43 1012.74 1013.03 1013.28 1013.47 1013.59
1009.11 1008.95 1008.70 1008.39 1008.02 1007.62 1007.19 1006.73 1006.26 1005.77 1005.27 1004.75 1004.22 1003.69 1003.17 1002.70 1002.33 1002.08 1002.00 1002.11 1002.40 1002.87 1003.47 1004.14 1004.84 1005.52 1006.13 1006.66 1007.13 1007.54 1007.94 1008.33 1008.75 1009.18 1009.63 1010.08 1010.49 1010.87 1011.19 1011.48 1011.75 1012.01 1012.29 1012.58 1012.89 1013.19 1013.46 1013.68 1013.82
1009.20 1009.03 1008.78 1008.47 1008.11 1007.71 1007.28 1006.82 1006.32 1005.79 1005.23 1004.63 1004.02 1003.39 1002.78 1002.23 1001.77 1001.47 1001.34 1001.43 1001.72 1002.21 1002.85 1003.59 1004.36 1005.10 1005.78 1006.37 1006.87 1007.32 1007.73 1008.13 1008.56 1009.02 1009.50 1009.98 1010.45 1010.89 1011.27 1011.61 1011.92 1012.20 1012.48 1012.78 1013.08 1013.38 1013.66 1013.89 1014.06
1009.28 1009.08 1008.82 1008.51 1008.15 1007.75 1007.31 1006.83 1006.31 1005.75 1005.14 1004.50 1003.83 1003.15 1002.48 1001.86 1001.34 1000.98 1000.80 1000.84 1001.11 1001.60 1002.25 1003.02 1003.83 1004.63 1005.37 1006.02 1006.57 1007.04 1007.47 1007.88 1008.31 1008.78 1009.28 1009.81 1010.33 1010.82 1011.27 1011.66 1012.01 1012.32 1012.62 1012.91 1013.21 1013.50 1013.79 1014.04 1014.24
1009.28 1009.05 1008.77 1008.43 1008.06 1007.63 1007.17 1006.66 1006.10 1005.51 1004.88 1004.22 1003.52 1002.82 1002.13 1001.49 1000.94 1000.54 1000.31 1000.31 1000.53 1000.98 1001.61 1002.38 1003.22 1004.07 1004.85 1005.55 1006.15 1006.65 1007.10 1007.53 1007.96 1008.43 1008.95 1009.49 1010.05 1010.59 1011.10 1011.55 1011.94 1012.29 1012.60 1012.89 1013.19 1013.49 1013.78 1014.06 1014.30
1009.18 1008.91 1008.60 1008.23 1007.81 1007.34 1006.82 1006.25 1005.64 1005.00 1004.33 1003.65 1002.97 1002.28 1001.62 1001.00 1000.46 1000.04 999.79 999.74 999.92 1000.31 1000.90 1001.65 1002.49 1003.35 1004.18 1004.92 1005.57 1006.12 1006.60 1007.04 1007.48 1007.95 1008.46 1009.02 1009.60 1010.18 1010.73 1011.23 1011.67 1012.05 1012.39 1012.70 1013.00 1013.31 1013.62 1013.92 1014.21
1008.99 1008.70 1008.35 1007.94 1007.46 1006.90 1006.28 1005.61 1004.90 1004.18 1003.46 1002.77 1002.10 1001.46 1000.86 1000.30 999.82 999.43 999.19 999.11 999.24 999.57 1000.10 1000.80 1001.61 1002.48 1003.33 1004.12 1004.82 1005.42 1005.94 1006.40 1006.85 1007.32 1007.84 1008.39 1008.99 1009.59 1010.18 1010.73 1011.21 1011.64 1012.01 1012.35 1012.67 1012.99 1013.32 1013.65 1013.98
1008.79 1008.47 1008.10 1007.64 1007.08 1006.42 1005.66 1004.84 1003.99 1003.15 1002.35 1001.62 1000.97 1000.38 999.87 999.42 999.03 998.71 998.50 998.42 998.51 998.78 999.23 999.86 1000.63 1001.47 1002.33 1003.15 1003.90 1004.56 1005.13 1005.64 1006.11 1006.59 1007.11 1007.67 1008.27 1008.89 1009.51 1010.10 1010.64 1011.12 1011.54 1011.91 1012.25 1012.59 1012.94 1013.30 1013.66
1008.63 1008.33 1007.95 1007.45 1006.81 1006.03 1005.12 1004.12 1003.09 1002.09 1001.18 1000.38 999.73 999.20 998.79 998.46 998.20 997.99 997.84 997.77 997.83 998.03 998.39 998.92 999.61 1000.39 1001.23 1002.07 1002.86 1003.58 1004.21 1004.77 1005.29 1005.79 1006.32 1006.89 1007.50 1008.14 1008.80 1009.43 1010.02 1010.56 1011.03 1011.44 1011.82 1012.18 1012.54 1012.91 1013.29
1008.61 1008.35 1007.98 1007.47 1006.76 1005.86 1004.79 1003.61 1002.38 1001.20 1000.15 999.28 998.61 998.13 997.82 997.62 997.50 997.40 997.33 997.29 997.32 997.44 997.69 998.10 998.66 999.36 1000.14 1000.97 1001.78 1002.54 1003.23 1003.85 1004.41 1004.96 1005.51 1006.10 1006.72 1007.39 1008.08 1008.76 1009.41 1010.00 1010.53 1011.00 1011.41 1011.78 1012.15 1012.52 1012.90
1008.75 1008.55 1008.23 1007.73 1006.99 1006.00 1004.79 1003.43 1002.02 1000.67 999.48 998.52 997.82 997.39 997.16 997.09 997.10 997.13 997.14 997.12 997.11 997.14 997.26 997.51 997.92 998.48 999.16 999.92 1000.72 1001.50 1002.23 1002.90 1003.52 1004.10 1004.69 1005.30 1005.95 1006.64 1007.36 1008.09 1008.79 1009.45 1010.04 1010.55 1011.00 1011.40 1011.76 1012.12 1012.48
1009.03 1008.91 1008.66 1008.19 1007.44 1006.41 1005.11 1003.62 1002.07 1000.57 999.26 998.23 997.51 997.11 996.97 997.01 997.15 997.28 997.36 997.36 997.30 997.22 997.18 997.25 997.46 997.84 998.38 999.04 999.77 1000.53 1001.27 1001.97 1002.62 1003.24 1003.85 1004.48 1005.15 1005.86 1006.62 1007.39 1008.14 1008.86 1009.50 1010.07 1010.56 1010.97 1011.34 1011.68 1012.02
1009.37 1009.32 1009.14 1008.73 1008.02 1006.99 1005.66 1004.11 1002.47 1000.90 999.51 998.43 997.71 997.34 997.28 997.42 997.65 997.87 998.01 998.01 997.89 997.70 997.50 997.36 997.36 997.53 997.87 998.38 999.00 999.69 1000.40 1001.09 1001.75 1002.38 1003.00 1003.64 1004.31 1005.04 1005.80 1006.60 1007.40 1008.16 1008.86 1009.48 1010.00 1010.45 1010.82 1011.16 1011.47
1009.67 1009.68 1009.56 1009.21 1008.57 1007.58 1006.28 1004.74 1003.10 1001.50 1000.11 999.03 998.33 998.00 998.00 998.22 998.54 998.83 999.00 999.00 998.83 998.52 998.16 997.82 997.60 997.54 997.67 997.99 998.47 999.05 999.68 1000.32 1000.94 1001.55 1002.16 1002.77 1003.43 1004.14 1004.90 1005.71 1006.53 1007.33 1008.07 1008.73 1009.30 1009.78 1010.18 1010.52 1010.84
1009.85 1009.86 1009.78 1009.49 1008.91 1008.01 1006.78 1005.33 1003.75 1002.22 1000.87 999.84 999.18 998.91 998.97 999.26 999.64 999.98 1000.19 1000.18 999.96 999.57 999.07 998.55 998.13 997.85 997.78 997.90 998.20 998.64 999.15 999.70 1000.26 1000.81 1001.36 1001.92 1002.53 1003.20 1003.94 1004.73 1005.55 1006.36 1007.13 1007.84 1008.45 1008.97 1009.40 1009.77 1010.10
1009.83 1009.81 1009.72 1009.47 1008.96 1008.15 1007.05 1005.72 1004.26 1002.84 1001.60 1000.65 1000.07 999.86 999.97 1000.31 1000.74 1001.13 1001.36 1001.36 1001.12 1000.67 1000.08 999.44 998.86 998.41 998.15 998.09 998.22 998.49 998.87 999.30 999.76 1000.21 1000.68 1001.17 1001.70 1002.30 1002.98 1003.73 1004.52 1005.32 1006.10 1006.83 1007.48 1008.04 1008.52 1008.93 1009.30
1009.66 1009.56 1009.44 1009.19 1008.74 1008.02 1007.04 1005.85 1004.55 1003.28 1002.17 1001.32 1000.82 1000.67 1000.83 1001.21 1001.67 1002.08 1002.34 1002.36 1002.14 1001.67 1001.05 1000.35 999.67 999.11 998.72 998.51 998.49 998.62 998.85 999.16 999.49 999.83 1000.19 1000.58 1001.02 1001.53 1002.12 1002.80 1003.54 1004.31 1005.08 1005.82 1006.49 1007.08 1007.60 1008.06 1008.48
Thickness
5818 5824 5828 5825 5820 5818 5805 5810 5817 5816 5818 5824 5824 5820 5813 5808 5802 5792 5810 5818 5815 5811 5804 5795 5790 5787 5785 5783 5781 5779 5777 5775 5773 5772 5770 5768 5767 5766 5765 5764 5763 5763 5762 5762 5761 5760 5760 5759 5758
5825 5827 5824 5824 5818 5803 5800 5812 5812 5815 5821 5826 5823 5819 5813 5809 5813 5811 5812 5813 5813 5809 5803 5796 5788 5785 5783 5781 5779 5777 5775 5773 5771 5770 5768 5767 5765 5764 5763 5762 5761 5761 5760 5760 5759 5758 5757 5757 5757
5826 5826 5822 5823 5813 5804 5801 5812 5815 5820 5825 5823 5819 5819 5814 5808 5812 5812 5813 5813 5811 5807 5802 5793 5786 5783 5781 5779 5777 5775 5773 5771 5769 5768 5766 5765 5764 5763 5761 5760 5759 5758 5758 5757 5757 5756 5755 5755 5755
5825 5823 5823 5817 5804 5809 5812 5816 5819 5819 5821 5823 5819 5812 5815 5816 5816 5816 5814 5812 5809 5805 5801 5791 5784 5781 5779 5777 5775 5773 5771 5769 5767 5765 5764 5762 5761 5760 5759 5758 5757 5756 5756 5755 5754 5754 5753 5753 5753
5825 5821 5814 5806 5805 5811 5819 5821 5822 5817 5816 5818 5817 5809 5807 5814 5818 5815 5811 5810 5807 5803 5799 5790 5782 5779 5777 5775 5772 5771 5769 5767 5765 5763 5761 5760 5759 5758 5757 5757 5756 5754 5753 5753 5752 5752 5751 5751 5751
5819 5820 5807 5799 5802 5810 5818 5823 5821 5817 5816 5817 5815 5809 5806 5813 5812 5811 5810 5807 5806 5801 5797 5788 5780 5777 5775 5772 5770 5768 5766 5764 5763 5761 5759 5758 5757 5756 5755 5754 5753 5751 5751 5751 5750 5750 5749 5749 5749
5813 5812 5805 5804 5801 5805 5813 5822 5818 5816 5814 5816 5819 5809 5807 5808 5810 5810 5808 5805 5802 5799 5795 5789 5783 5777 5773 5771 5768 5766 5764 5762 5761 5759 5757 5756 5755 5754 5753 5752 5751 5750 5749 5749 5748 5747 5747 5747 5747
5819 5812 5804 5804 5800 5802 5816 5820 5820 5817 5815 5824 5822 5808 5804 5807 5809 5807 5805 5801 5798 5795 5792 5788 5785 5781 5777 5772 5767 5765 5763 5761 5759 5758 5756 5755 5754 5753 5751 5751 5749 5748 5747 5747 5746 5745 5745 5745 5745
5816 5804 5799 5802 5802 5806 5816 5813 5818 5825 5819 5818 5819 5816 5815 5812 5807 5802 5797 5795 5792 5790 5789 5787 5785 5782 5779 5775 5768 5765 5762 5760 5758 5757 5755 5754 5756 5755 5752 5751 5748 5747 5746 5745 5745 5743 5743 5743 5743
5809 5799 5802 5810 5813 5811 5813 5812 5814 5814 5809 5809 5810 5811 5812 5807 5802 5797 5794 5790 5788 5786 5787 5786 5784 5781 5779 5775 5770 5767 5764 5761 5760 5759 5757 5756 5755 5754 5753 5748 5747 5746 5745 5744 5744 5743 5743 5743 5745
5805 5800 5806 5810 5814 5812 5810 5811 5815 5808 5802 5807 5805 5804 5804 5802 5799 5797 5795 5793 5790 5788 5785 5784 5782 5780 5777 5774 5770 5767 5765 5762 5760 5758 5756 5755 5754 5753 5752 5750 5748 5746 5745 5746 5744 5745 5746 5746 5745
5800 5801 5804 5807 5810 5808 5807 5808 5806 5805 5806 5815 5814 5809 5803 5799 5798 5797 5794 5792 5790 5787 5784 5783 5780 5777 5775 5772 5769 5766 5764 5761 5760 5756 5754 5754 5754 5752 5751 5750 5749 5748 5747 5746 5746 5745 5745 5744 5744
5795 5797 5802 5805 5806 5806 5804 5802 5802 5803 5812 5815 5813 5807 5802 5799 5799 5798 5797 5793 5789 5785 5782 5780 5778 5774 5770 5768 5766 5765 5762 5760 5757 5754 5753 5751 5752 5751 5750 5748 5747 5748 5746 5745 5744 5744 5743 5743 5742
5796 5796 5798 5801 5802 5802 5797 5799 5799 5800 5809 5807 5805 5802 5802 5799 5798 5795 5793 5789 5786 5783 5780 5779 5775 5772 5768 5765 5763 5761 5760 5756 5756 5753 5751 5749 5750 5748 5747 5747 5745 5746 5745 5743 5743 5743 5742 5741 5740
5794 5788 5791 5796 5798 5799 5796 5788 5792 5801 5804 5801 5800 5800 5798 5797 5796 5793 5791 5788 5786 5781 5779 5776 5773 5770 5767 5764 5762 5760 5758 5756 5754 5752 5749 5747 5747 5746 5745 5745 5744 5744 5743 5741 5741 5741 5740 5739 5739
5786 5781 5778 5790 5793 5795 5785 5777 5792 5800 5798 5794 5795 5794 5792 5791 5793 5791 5789 5787 5785 5781 5777 5774 5774 5769 5765 5762 5760 5759 5756 5754 5752 5750 5748 5745 5744 5743 5742 5743 5743 5741 5741 5741 5740 5740 5738 5737 5737
5775 5771 5774 5782 5790 5790 5784 5778 5789 5795 5793 5789 5789 5788 5787 5786 5787 5788 5788 5785 5782 5779 5776 5772 5770 5767 5764 5761 5758 5756 5752 5751 5750 5748 5747 5744 5742 5741 5741 5741 5741 5740 5740 5739 5740 5739 5737 5735 5734
5766 5771 5772 5774 5784 5782 5777 5777 5784 5789 5787 5785 5785 5784 5782 5781 5782 5785 5784 5782 5779 5776 5773 5770 5767 5764 5762 5759 5756 5754 5751 5749 5747 5746 5743 5741 5740 5738 5738 5738 5737 5738 5737 5736 5736 5734 5733 5733 5732
5771 5768 5767 5774 5783 5775 5771 5772 5778 5782 5781 5779 5779 5780 5779 5779 5782 5782 5780 5777 5774 5772 5769 5767 5764 5761 5759 5756 5754 5750 5748 5746 5745 5743 5740 5739 5737 5736 5735 5736 5734 5734 5734 5733 5733 5732 5730 5729 5730
5763 5760 5764 5770 5775 5770 5767 5767 5776 5778 5776 5777 5776 5775 5775 5776 5777 5775 5774 5772 5769 5767 5765 5764 5761 5759 5756 5754 5752 5749 5747 5745 5744 5741 5738 5736 5735 5734 5734 5732 5732 5731 5730 5729 5728 5727 5727 5727 5727
5757 5759 5763 5761 5765 5767 5761 5759 5767 5774 5776 5775 5775 5775 5775 5774 5773 5770 5769 5767 5766 5764 5763 5762 5759 5757 5754 5752 5750 5747 5744 5742 5741 5738 5736 5734 5732 5731 5730 5730 5729 5728 5728 5726 5724 5723 5722 5722 5723
5751 5765 5762 5757 5752 5756 5756 5746 5762 5768 5766 5767 5769 5770 5771 5772 5771 5769 5766 5764 5764 5764 5762 5759 5756 5753 5751 5749 5747 5744 5741 5738 5737 5736 5734 5732 5730 5729 5727 5726 5726 5725 5725 5723 5722 5721 5720 5718 5719
5758 5766 5759 5756 5751 5749 5754 5744 5757 5765 5757 5760 5764 5766 5768 5770 5769 5766 5764 5763 5763 5762 5760 5757 5753 5749 5748 5746 5743 5740 5739 5737 5736 5734 5730 5729 5728 5726 5725 5723 5723 5722 5721 5720 5719 5717 5717 5717 5716
5760 5755 5753 5753 5751 5733 5747 5742 5745 5758 5756 5759 5762 5764 5765 5766 5766 5764 5762 5761 5759 5758 5757 5754 5750 5746 5744 5742 5740 5737 5735 5733 5731 5728 5727 5726 5725 5723 5722 5721 5719 5718 5717 5716 5715 5714 5713 5713 5712
5750 5740 5730 5727 5729 5734 5751 5740 5743 5757 5760 5759 5759 5761 5762 5762 5761 5758 5757 5755 5753 5752 5752 5750 5746 5743 5741 5739 5736 5734 5732 5729 5726 5725 5723 5722 5721 5719 5717 5717 5715 5714 5713 5712 5711 5710 5710 5708 5707
5743 5741 5726 5717 5725 5737 5740 5734 5746 5757 5758 5758 5758 5758 5757 5757 5757 5754 5752 5750 5749 5748 5747 5745 5742 5739 5738 5736 5733 5731 5728 5727 5726 5722 5721 5719 5718 5717 5714 5712 5711 5710 5709 5708 5707 5707 5706 5704 5703
5738 5740 5748 5734 5733 5728 5735 5738 5744 5751 5749 5749 5749 5750 5750 5750 5750 5749 5747 5746 5745 5743 5742 5740 5738 5736 5734 5732 5729 5726 5724 5722 5721 5718 5717 5716 5714 5713 5710 5708 5707 5706 5704 5703 5702 5702 5701 5700 5699
5745 5742 5734 5725 5711 5713 5726 5730 5735 5736 5738 5741 5741 5741 5743 5743 5743 5743 5741 5740 5739 5738 5737 5735 5733 5731 5729 5727 5725 5724 5721 5718 5716 5715 5712 5711 5709 5707 5706 5704 5703 5701 5700 5699 5697 5698 5697 5695 5694
5729 5728 5727 5727 5725 5713 5712 5722 5740 5736 5736 5735 5736 5737 5737 5736 5737 5737 5735 5735 5735 5733 5731 5729 5727 5725 5723 5722 5721 5718 5717 5715 5713 5710 5709 5706 5704 5702 5701 5700 5698 5696 5695 5694 5692 5692 5691 5690 5689
5730 5727 5723 5710 5711 5715 5715 5718 5736 5734 5733 5731 5730 5730 5730 5730 5730 5731 5729 5729 5727 5725 5723 5722 5720 5719 5718 5717 5715 5713 5711 5710 5708 5706 5704 5702 5700 5699 5697 5695 5694 5692 5690 5689 5687 5686 5686 5685 5684